{"data":{"norad_id":37930,"epoch":"2026-05-25T03:59:31.441632Z","epoch_age_seconds":60443,"freshness":"FRESH","line1":"1 37930U 11068A   26145.16633613  .00000149  00000+0  74177-4 0  9998","line2":"2 37930  98.6996 162.7535 0014824 179.4894 268.1610 14.30532807757366","mean_motion":14.30532807,"eccentricity":0.0014824,"inclination_deg":98.6996,"raan_deg":162.7535,"arg_perigee_deg":179.4894,"mean_anomaly_deg":268.161,"bstar":7.4177e-5,"rev_number":75736,"period_min":100.66179488885,"perigee_km":779.32444767572,"apogee_km":800.57639325992,"semimajor_km":7168.0874204678,"source":"CELESTRAK","updated_at":"2026-05-25T13:37:55.271036Z"}}